Regional Weather Roundup
Issued by NWS Albany, NY

Home | Current Version | Previous Version | Text Only | Print | Product List | Glossary On
Versions: 1 2 3 4 5 6 7 8 9 10 11 12 13 14 15 16 17 18 19 20 21 22 23 24 25 26 27 28 29 30 31 32 33 34 35 36 37 38 39 40 41 42 43 44 45 46 47 48 49 50
000
ASUS41 KALY 280210
RWRALY

NEW YORK STATE HOURLY WEATHER ROUNDUP
NATIONAL WEATHER SERVICE ALBANY NY
1000 PM EDT MON APR 27 2015

NOTE: "FAIR" INDICATES FEW OR NO CLOUDS BELOW 12,000 FEET WITH NO
SIGNIFICANT WEATHER AND/OR NO OBSTRUCTIONS TO VISIBILITY.

NYZ032-033-038>043-046>054-057>066-NYZ062>081-280300-
EAST


CITY           SKY/WX    TMP DP  RH WIND       PRES   REMARKS
ALBANY         CLOUDY    51  39  63 NW14      29.74S
GLENS FALLS    LGT RAIN  50  41  71 N10       29.75R
POUGHKEEPSIE   CLOUDY    52  40  63 N5        29.73R
MONTGOMERY     CLOUDY    52  36  54 NW12      29.73S
WHITE PLAINS   MOCLDY    52  35  52 N17G26    29.70R
ISLIP          CLOUDY    53  38  56 NW21G30   29.66R
NEW YORK CITY  CLOUDY    54  35  48 NW18G29   29.71R
CENTRAL PARK   CLOUDY    55  32  41 NW9G17    29.74R
$$

NYZ005>009-017-018-044>046-055-056-280300-
CENTRAL


CITY           SKY/WX    TMP DP  RH WIND       PRES   REMARKS
FULTON         LGT RAIN  45  37  73 W9        29.87S
SYRACUSE       LGT RAIN  46  39  76 W6        29.87S
ROME           CLOUDY    43  36  76 W12       29.86S
ELMIRA         LGT RAIN  46  40  79 W6        29.89R
BINGHAMTON     CLOUDY    41  38  89 NW12      29.83S
MONTICELLO     CLOUDY    45  36  70 NW16G23   29.78S
$$

NYZ026>034-041>043-280300-
NORTH


CITY           SKY/WX    TMP DP  RH WIND       PRES   REMARKS
WATERTOWN      CLOUDY    43  38  82 CALM      29.85S
FORT DRUM      NOT AVBL
MASSENA        CLOUDY    54  42  64 N6        29.84R
SARANAC LAKE   LGT RAIN  45  41  86 N12G24    29.79R
PLATTSBURGH    CLOUDY    47  45  93 NW3       29.80S
$$

NYZ001>004-010>016-019>021-280300-
WEST


CITY           SKY/WX    TMP DP  RH WIND       PRES   REMARKS
NIAGARA FALLS  MOCLDY    44  38  79 SW6       29.96R
BUFFALO        CLOUDY    41  35  79 SW13      29.97R
DUNKIRK        CLOUDY    43  38  82 SW8       29.99R
JAMESTOWN      CLOUDY    39  34  81 W5        29.97R
WELLSVILLE     LGT RAIN  39  36  89 NW8       29.92R WCI  33
ROCHESTER      CLOUDY    48  40  73 W13       29.92R
PENN YAN       CLOUDY    46  40  79 W10       29.89S
$$

             KEY
       WCI = WIND CHILL INDEX
       VSB = VISIBILITY
       HX  = HEAT INDEX
$$



USA.gov is the U.S. government's official web portal to all federal, state and local government web resources and services.